Regional Weather Roundup
Issued by NWS

Home | Current Version | Previous Version | Graphics & Text | Print | Product List | Glossary On
Versions: 1 2 3 4 5 6 7 8 9 10 11 12 13 14 15 16 17 18 19 20 21 22 23 24 25 26 27 28 29 30 31 32 33 34 35 36 37 38 39 40 41 42 43 44 45 46 47 48 49 50
000
ASUS43 KOAX 202310
RWRNE

WEATHER ROUNDUP FOR NEBRASKA
NATIONAL WEATHER SERVICE OMAHA NE
500 PM CST THU NOV 20 2014

NOTES: SATELLITE DATA IS BEING USED TO AUGMENT CLOUD COVER ABOVE
       12000 FEET.
       "FAIR" INDICATES FEW OR NO CLOUDS BELOW 12,000 FEET WITH NO
       SIGNIFICANT WEATHER AND/OR OBSTRUCTIONS TO VISIBILITY.

  * THESE STATIONS DO NOT REPORT WEATHER SUCH AS RAIN...SNOW OR FOG.

NEZ001>004-019>022-054>056-210000-
NEBRASKA PANHANDLE

CITY           SKY/WX    TMP DP  RH WIND       PRES   REMARKS
SCOTTSBLUFF    CLEAR     48  17  29 SE5       29.92S
ALLIANCE       CLEAR     46  16  30 S7        29.92R
CHADRON        CLEAR     44  22  41 N3        29.92S
KIMBALL        CLEAR     46  11  24 S6        29.93S
SIDNEY         CLEAR     46  15  28 SW10      29.95S
$$

NEZ057>060-069>072-079>082-210000-
SOUTHWEST NEBRASKA

CITY           SKY/WX    TMP DP  RH WIND       PRES   REMARKS
NORTH PLATTE   CLEAR     37  21  52 SE9       30.02R WCI  30
IMPERIAL       CLEAR     44  19  36 SE9       29.99S
LEXINGTON      CLEAR     37  22  54 SE7       30.06R WCI  32
MCCOOK         CLEAR     41  21  44 E8        30.03S
OGALLALA       CLEAR     46  22  38 SE5       29.97S
$$

NEZ005>010-023>029-035>040-094-210000-
NORTH CENTRAL NEBRASKA

CITY           SKY/WX    TMP DP  RH WIND       PRES   REMARKS
VALENTINE      CLEAR     32  23  69 E8        30.01S WCI  25
AINSWORTH      CLEAR     29  23  77 E9        30.03R WCI  21
BROKEN BOW     CLEAR     36  21  54 SE8       30.05R WCI  30
O`NEILL        CLEAR     24  20  83 E7        30.10S WCI  16
ORD            CLEAR     32  20  61 SE7       30.08S WCI  26
THEDFORD       CLEAR     40  22  48 SE6       30.01R
$$

NEZ041-046>049-061>064-073>077-083>087-210000-
SOUTH CENTRAL NEBRASKA

CITY           SKY/WX    TMP DP  RH WIND       PRES   REMARKS
GRAND ISLAND   CLEAR     31  21  66 E8        30.13R WCI  23
AURORA         CLEAR     29  22  76 E7        30.13S WCI  22
HASTINGS       CLEAR     36  19  50 SE7       30.10R WCI  30
HEBRON         CLEAR     34  19  54 SE6       30.14S WCI  29
HOLDREGE       CLEAR     36  20  52 SE6       30.07R WCI  31
KEARNEY *      CLEAR     34  19  55 E8        30.10R WCI  27
YORK           CLEAR     28  23  80 SE6       30.15S WCI  22
$$

NEZ011>018-030>034-042>045-210000-
NORTHEAST NEBRASKA

CITY           SKY/WX    TMP DP  RH WIND       PRES   REMARKS
NORFOLK        PTCLDY    26  18  71 E5        30.16R WCI  20
ALBION         CLEAR     28  19  69 E7        30.13S WCI  21
BLAIR          CLEAR     27  18  70 NE6       30.19S WCI  20
COLUMBUS *     CLEAR     27  18  69 E7        30.18S WCI  19
FREMONT        CLEAR     28  19  68 CALM      30.20R
TEKAMAH        CLOUDY    27  17  66 NE7       30.21R WCI  19
WAYNE          CLOUDY    25  18  73 NE5       30.18S WCI  20
$$

NEZ050>053-065>068-078-088>093-210000-
SOUTHEAST NEBRASKA

CITY           SKY/WX    TMP DP  RH WIND       PRES   REMARKS
LINCOLN        CLEAR     30  20  66 E9        30.20R WCI  22
OMAHA EPPLEY   PTCLDY    27  18  69 N5        30.22S WCI  22
BEATRICE       CLEAR     33  20  59 E5        30.17R WCI  29
FALLS CITY     CLEAR     29  19  66 E7        30.21R WCI  22
NEBRASKA CITY  CLEAR     28  16  61 NE5       30.19S WCI  23
PLATTSMOUTH    CLEAR     28  17  64 NE3       30.20R
$$

NEZ044-045-051>053-067-210000-
OMAHA AREA

CITY           SKY/WX    TMP DP  RH WIND       PRES   REMARKS
OMAHA EPPLEY   PTCLDY    27  18  69 N5        30.22S WCI  22
BLAIR          CLEAR     27  18  70 NE6       30.19S WCI  20
FREMONT        CLEAR     28  19  68 CALM      30.20R
MILLARD        CLEAR     29  18  63 CALM      30.20S
OFFUTT AFB     CLEAR     27  18  69 NE6       30.20S WCI  20
PLATTSMOUTH    CLEAR     28  17  64 NE3       30.20R
WAHOO          FAIR      27  18  69 NE6       30.19S WCI  20
$$



USA.gov is the U.S. government's official web portal to all federal, state and local government web resources and services.